Radioactive Concentration measured by Seawater Radiation Monitor near Fukushima Daiichi Nuclear Power Station
Date,Time,Cs137(Bq/L),Cs134(Bq/L),Total β(Bq/L)
2018/03/03,00:00,1.4,0.098,10
2018/03/03,00:10,1.4,0.090,10
2018/03/03,00:20,1.3,0.078,11
2018/03/03,00:30,1.3,0.070,12
2018/03/03,00:40,1.3,0.061,9.0
2018/03/03,00:50,1.3,0.053,ND
2018/03/03,01:00,1.3,0.062,ND
2018/03/03,01:10,1.3,0.070,ND
2018/03/03,01:20,1.3,0.068,ND
2018/03/03,01:30,1.2,0.067,ND
2018/03/03,01:40,1.2,0.076,ND
2018/03/03,01:50,1.2,0.075,ND
2018/03/03,02:00,1.2,0.069,ND
2018/03/03,02:10,1.2,0.060,ND
2018/03/03,02:20,1.2,0.059,ND
2018/03/03,02:30,1.2,0.061,10
2018/03/03,02:40,1.2,0.050,ND
2018/03/03,02:50,1.2,0.055,13
2018/03/03,03:00,1.2,0.057,16
2018/03/03,03:10,1.2,0.061,12
2018/03/03,03:20,1.2,0.065,10
2018/03/03,03:30,1.2,0.071,9.0
2018/03/03,03:40,1.2,0.077,11
2018/03/03,03:50,1.2,0.076,ND
2018/03/03,04:00,1.2,0.077,ND
2018/03/03,04:10,1.2,0.073,9.0
2018/03/03,04:20,1.2,0.068,9.0
2018/03/03,04:30,1.2,0.062,9.5
2018/03/03,04:40,1.2,0.053,ND
2018/03/03,04:50,1.2,0.054,ND
2018/03/03,05:00,1.2,0.049,ND
2018/03/03,05:10,1.2,0.052,ND
2018/03/03,05:20,1.3,0.057,ND
2018/03/03,05:30,1.3,0.063,ND
2018/03/03,05:40,1.3,0.066,9.5
2018/03/03,05:50,1.3,0.061,ND
2018/03/03,06:00,1.3,0.068,9.3
2018/03/03,06:10,1.3,0.069,8.9
2018/03/03,06:20,1.3,0.070,ND
2018/03/03,06:30,1.3,0.069,ND
2018/03/03,06:40,1.3,0.075,ND
2018/03/03,06:50,1.4,0.079,ND
2018/03/03,07:00,1.4,0.077,ND
2018/03/03,07:10,1.4,0.079,ND
2018/03/03,07:20,1.4,0.077,ND
2018/03/03,07:30,1.4,0.073,8.9
2018/03/03,07:40,1.4,0.068,ND
2018/03/03,07:50,1.4,0.073,9.7
2018/03/03,08:00,1.4,0.072,ND
2018/03/03,08:10,1.4,0.083,ND
2018/03/03,08:20,1.4,0.071,9.2
2018/03/03,08:30,1.4,0.076,ND
2018/03/03,08:40,1.4,0.069,9.0
2018/03/03,08:50,1.4,0.067,8.9
2018/03/03,09:00,1.4,0.063,10
2018/03/03,09:10,1.4,0.056,ND
2018/03/03,09:20,1.3,0.066,ND
2018/03/03,09:30,1.3,0.068,ND
2018/03/03,09:40,1.3,0.074,ND
2018/03/03,09:50,1.3,0.064,ND
2018/03/03,10:00,1.3,0.067,ND
2018/03/03,10:10,1.3,0.061,ND
2018/03/03,10:20,1.3,0.060,ND
2018/03/03,10:30,1.3,0.054,ND
2018/03/03,10:40,1.2,0.058,ND
2018/03/03,10:50,1.2,0.073,ND
2018/03/03,11:00,1.2,0.073,ND
2018/03/03,11:10,1.2,0.087,ND
2018/03/03,11:20,1.1,0.092,ND
2018/03/03,11:30,1.1,0.095,ND
2018/03/03,11:40,1.1,0.093,ND
2018/03/03,11:50,1.2,0.074,ND
2018/03/03,12:00,1.1,0.071,ND
2018/03/03,12:10,1.1,0.061,ND
2018/03/03,12:20,1.2,0.056,ND
2018/03/03,12:30,1.1,0.055,11
2018/03/03,12:40,1.1,0.053,14
2018/03/03,12:50,1.1,0.060,13
2018/03/03,13:00,1.1,0.062,13
2018/03/03,13:10,1.1,0.060,13
2018/03/03,13:20,1.1,0.069,15
2018/03/03,13:30,1.1,0.070,11
2018/03/03,13:40,1.1,0.075,9.2
2018/03/03,13:50,1.1,0.082,ND
2018/03/03,14:00,1.1,0.087,ND
2018/03/03,14:10,1.1,0.083,9.3
2018/03/03,14:20,1.1,0.080,ND
2018/03/03,14:30,1.1,0.081,ND
2018/03/03,14:40,1.1,0.080,9.5
2018/03/03,14:50,1.1,0.064,11
2018/03/03,15:00,1.1,0.056,12
2018/03/03,15:10,1.1,0.064,10
2018/03/03,15:20,1.1,0.062,ND
2018/03/03,15:30,1.1,0.054,ND
2018/03/03,15:40,1.1,0.054,ND
2018/03/03,15:50,1.1,0.060,ND
2018/03/03,16:00,1.1,0.064,ND
2018/03/03,16:10,1.1,0.062,ND
2018/03/03,16:20,1.1,0.066,ND
2018/03/03,16:30,1.1,0.065,ND
2018/03/03,16:40,1.1,0.066,ND
2018/03/03,16:50,1.1,0.061,ND
2018/03/03,17:00,1.2,0.059,ND
2018/03/03,17:10,1.1,0.071,ND
2018/03/03,17:20,1.1,0.066,ND
2018/03/03,17:30,1.2,0.062,ND
2018/03/03,17:40,1.2,0.053,ND
2018/03/03,17:50,1.2,0.058,ND
2018/03/03,18:00,1.2,0.053,ND
2018/03/03,18:10,1.2,0.049,ND
2018/03/03,18:20,1.2,0.053,9.5
2018/03/03,18:30,1.2,0.059,ND
2018/03/03,18:40,1.1,0.062,ND
2018/03/03,18:50,1.1,0.051,10
2018/03/03,19:00,1.2,0.045,ND
2018/03/03,19:10,1.2,0.035,ND
2018/03/03,19:20,1.2,0.038,ND
2018/03/03,19:30,1.2,0.047,ND
2018/03/03,19:40,1.2,0.052,9.6
2018/03/03,19:50,1.2,0.058,8.8
2018/03/03,20:00,1.2,0.065,10
2018/03/03,20:10,1.2,0.066,10
2018/03/03,20:20,1.2,0.065,9.9
2018/03/03,20:30,1.2,0.059,10
2018/03/03,20:40,1.2,0.052,ND
2018/03/03,20:50,1.2,0.053,ND
2018/03/03,21:00,1.2,0.051,ND
2018/03/03,21:10,1.2,0.055,ND
2018/03/03,21:20,1.2,0.047,ND
2018/03/03,21:30,1.2,0.041,ND
2018/03/03,21:40,1.2,0.051,9.0
2018/03/03,21:50,1.2,0.053,ND
2018/03/03,22:00,1.2,0.060,8.8
2018/03/03,22:10,1.3,0.070,ND
2018/03/03,22:20,1.3,0.076,ND
2018/03/03,22:30,1.3,0.074,ND
2018/03/03,22:40,1.3,0.076,ND
2018/03/03,22:50,1.4,0.069,10
2018/03/03,23:00,1.4,0.071,ND
2018/03/03,23:10,1.4,0.077,ND
2018/03/03,23:20,1.3,0.083,ND
2018/03/03,23:30,1.3,0.084,ND
2018/03/03,23:40,1.3,0.091,ND
2018/03/03,23:50,1.3,0.089,ND
